Regional Weather Roundup
Issued by NWS

Home | Current Version | Previous Version | Text Only | Print | Product List | Glossary Off
Versions: 1 2 3 4 5 6 7 8 9 10 11 12 13 14 15 16 17 18 19 20 21 22 23 24 25 26 27 28 29 30 31 32 33 34 35 36 37 38 39 40 41 42 43 44 45 46 47 48 49 50

000
ASUS45 KBOU 241810
RWRCO

WEATHER ROUNDUP FOR COLORADO
NATIONAL WEATHER SERVICE DENVER/BOULDER CO
1200 PM MDT SAT SEP 24 2016

NOTE: "FAIR" INDICATES FEW OR NO CLOUDS BELOW 12000 FEET WITH NO
SIGNIFICANT WEATHER AND/OR OBSTRUCTIONS TO VISIBILITY.

COZ001>005-013-030-031-241900-
...NORTHWEST COLORADO...

CITY           SKY/WX    TMP DP  RH WIND       PRES   REMARKS
CRAIG          LGT RAIN  46  39  76 SW15G22   30.18R
HAYDEN         CLOUDY    45  36  70 W14       30.17S
MEEKER         CLOUDY    45  40  82 SW10      30.20R
MOUNT WERNER   NOT AVBL
STEAMBOAT SPGS CLOUDY    40  37  91 W6        30.18R
WALDEN           N/A     50  28  43 SW20      30.16R
$$

COZ006>008-011-241900-
...WEST CENTRAL VALLEYS...

CITY           SKY/WX    TMP DP  RH WIND       PRES   REMARKS
GRAND JUNCTION CLOUDY    54  41  61 CALM      30.19R
MONTROSE       CLOUDY    52  39  61 CALM      30.22F
EAGLE          MOSUNNY   46  39  76 CALM      30.21F
RIFLE          CLOUDY    46  43  89 NE6       30.21R
DELTA          NOT AVBL
NUCLA          CLOUDY    52  34  50 CALM      30.27S
$$

COZ017>023-064>068-241900-
...SOUTHWEST COLORADO...

CITY           SKY/WX    TMP DP  RH WIND       PRES   REMARKS
DURANGO        CLOUDY    53  34  48 W8        30.23S
CORTEZ         CLOUDY    54  39  57 CALM      30.24R
PAGOSA SPRINGS FAIR      49  31  50 W3        30.26S
TELLURIDE      CLOUDY    39  30  69 CALM      30.33R
WOLF CREEK PAS FAIR      32  28  86 SW6G16    30.38S WCI  26
$$

COZ009-010-012-014-032>034-037-058>063-241900-
...CENTRAL COLORADO...

CITY           SKY/WX    TMP DP  RH WIND       PRES   REMARKS
ASPEN          PTSUNNY   47  33  58 VRB6      30.19F
BUENA VISTA    PTSUNNY   51  23  33 W22G30    30.17S
COPPER MTN     CLOUDY    34  27  75 W7        30.28R WCI  28
BERTHOUD PASS  HAZE      27  12  54 N12G29    30.26R VSB 1/2 WCI  16
COTTONWOOD PAS PTSUNNY   45  25  45 W12G22    30.22S
GUNNISON       CLOUDY    39  34  81 CALM      30.25F
KREMMLING      FAIR      50  30  46 SW15G22   30.18F
LEADVILLE      PTSUNNY   40  23  50 NW15G25   30.21S
MONARCH PASS   FOG       27  23  86 W41G47    30.37S VSB<1/4 WCI   8
SALIDA         CLOUDY    52  28  39 W15G24    30.26F
SUNLIGHT       LGT SNOW  32  32 100 MISG      30.30S
WILKERSON PASS CLOUDY    37  23  56 SW8       30.27R
$$

COZ069>075-241900-
...SAN LUIS VALLEY/SANGRE DE CRISTO MOUNTAINS...

CITY           SKY/WX    TMP DP  RH WIND       PRES   REMARKS
ALAMOSA        FAIR      48  32  53 VRB5      30.21S
LA VETA PASS   FAIR      43  28  56 MISG      30.27R
SAGUACHE       NOT AVBL
$$

COZ035-036-038>040-241900-
...NORTHERN COLORADO FRONT RANGE...

CITY           SKY/WX    TMP DP  RH WIND       PRES   REMARKS
DENVER INTL AP FAIR      67  21  17 W7        30.03S
DMNS CITY PARK   N/A     67  23  18 E10       30.01F
AURORA         MOSUNNY   65  21  18 SE5       30.04S
FRONT RANGE AP MOSUNNY   68  21  17 NW8G17    30.04F
ERIE MUNI ARPT PTSUNNY   68  22  17 W6G16     30.02S
BOULDER MUN AP FAIR      64  28  25 SW21G29   30.02R
CENTENNIAL     FAIR      63  20  19 VRB5      30.04S
BROOMFIELD     MOSUNNY   64  43  45 CALM      30.05S
FORT COLLINS   FAIR      63  34  34 S8        30.02F
LONGMONT       FAIR      69  29  23 W9G21     30.02S
$$

COZ041-046-047-076>085-087-088-241900-
...PIKES PEAK/PALMER DIVIDE AND SOUTHERN FOOTHILLS...

CITY           SKY/WX    TMP DP  RH WIND       PRES   REMARKS
COLO. SPRINGS  FAIR      62  22  21 VRB3      30.08F
A. F. ACADEMY  FAIR      62  22  21 VRB5      30.07F
SCHRIEVER AFB  NOT AVBL
ELLICOTT       FAIR     N/A N/A N/A S13G22    30.07S
FALCON         FAIR      63  20  19 W14G20    30.11S
FORT CARSON    FAIR      66  23  19 VRB3      30.04F
LIMON          FAIR      67  23  19 S9        30.04F
MONUMENT HILL  FAIR      61  23  23 W13G20    30.11S
TRINIDAD       FAIR      66  23  19 N8        30.08S
$$

COZ042>045-048>051-090-091-241900-
...NORTHEAST COLORADO...

CITY           SKY/WX    TMP DP  RH WIND       PRES   REMARKS
GREELEY ARPT   FAIR      64  37  36 S8        30.03S
AKRON          FAIR      67  28  23 W8        30.02F
BURLINGTON     FAIR      64  38  38 S3        30.03F
WRAY           NOT AVBL
STERLING       FAIR      66  36  32 SW7       30.00F
HOLYOKE        FAIR      73  39  29 S7        30.01S
FORT MORGAN    FAIR      67  28  23 SW7       30.03F
$$

COZ086-089-092>099-241900-
...SOUTHEAST COLORADO...

CITY           SKY/WX    TMP DP  RH WIND       PRES   REMARKS
PUEBLO         FAIR      70  19  14 CALM      30.03S
LA JUNTA       FAIR      68  29  23 VRB5      30.03F
LAMAR          FAIR      68  38  33 VRB6      30.01F
SPRINGFIELD    NOT AVBL
$$



USA.gov is the U.S. government's official web portal to all federal, state and local government web resources and services.